Regional Weather Roundup
Issued by NWS

Home | Current Version | Previous Version | Text Only | Print | Product List | Glossary Off
Versions: 1 2 3 4 5 6 7 8 9 10 11 12 13 14 15 16 17 18 19 20 21 22 23 24 25 26 27 28 29 30 31 32 33 34 35 36 37 38 39 40 41 42 43 44 45 46 47 48 49 50

000
ASUS43 KLMK 290010
RWRKY
KENTUCKY REGIONAL WEATHER ROUNDUP
NATIONAL WEATHER SERVICE LOUISVILLE KY
800 PM EDT FRI APR 28 2017

NOTE "FAIR" INDICATES FEW OR NO CLOUDS BELOW 12,000 FEET
WITH NO SIGNIFICANT WEATHER AND/OR OBSTRUCTIONS TO VISIBILITY.

KYZ001>023-026-027-061>063-070>075-290100-
WESTERN AND SOUTH CENTRAL KENTUCKY

CITY           SKY/WX    TMP DP  RH WIND       PRES   REMARKS
PADUCAH        CLOUDY    77  68  73 S7        29.78S
HENDERSON      CLOUDY    74  69  85 SW10      29.82R
OWENSBORO      MOCLDY    75  68  78 S8        29.82R
HOPKINSVILLE   PTCLDY    78  69  73 S6        29.84R
BOWLING GREEN  CLOUDY    78  68  71 S7        29.87S
GLASGOW        CLOUDY    76  65  67 S6        29.88S
$$

KYZ024-025-028>034-038-045-046-053-290100-
NORTH CENTRAL KENTUCKY

CITY           SKY/WX    TMP DP  RH WIND       PRES   REMARKS
LOUISVILLE/SDF CLOUDY    75  65  70 S8        29.83S
LOUISVILLE/LOU CLOUDY    75  66  73 S7        29.84R
FORT KNOX      CLOUDY    75  65  71 S13G20    29.84R
$$

KYZ035>037-039>044-047>052-055>060-089>105-290100-
NORTHEAST KENTUCKY

CITY           SKY/WX    TMP DP  RH WIND       PRES   REMARKS
LEXINGTON      CLOUDY    77  59  53 S12       29.89S
COVINGTON      LGT RAIN  70  59  68 SE3       29.85F
FRANKFORT      MOCLDY    77  60  55 S14       29.85S
$$

KYZ054-064>069-076>088-106>120-290100-
SOUTHEAST KENTUCKY

CITY           SKY/WX    TMP DP  RH WIND       PRES   REMARKS
JACKSON        CLEAR     77  58  51 VRB3      29.96R
LONDON         MOCLDY    78  60  53 S9        29.95S
SOMERSET       CLOUDY    77  61  57 S6        29.94R
MIDDLESBORO    CLEAR     77  64  63 S5        29.99R
MONTICELLO     CLOUDY    78  64  61 S8        29.95R
$$





USA.gov is the U.S. government's official web portal to all federal, state and local government web resources and services.